Weather in Cheremushki

Russia / Krasnoyarsk Krai     55°10′54″N   92°11′24″E
temp.,
°C
wind,
m/s
gust,
m/s
humid.,
%
clouds,
%
prec.,
mm/h
press.,
hPa
HPBL,
m
14 april, wed
wed1401:00−2sw4988100 0.1 1028243
04:00−1wsw51097100 0.7 1026522
07:00−1w5995100 1.9 1027583
10:000wsw598793 0.3 1027692
13:00+1wsw71397100 0.6 1025798
16:00+1wsw71497100 1.5 1022753
19:00+1sw81597100 3.1 1018980
22:000wsw71598100 4.4 1017989
15 april, thu
thu1501:00+1w71498100 8.7 1018918
04:00+1wnw4998100 1.9 1021551
07:000w2597100 2.4 1024336
10:00+1wsw249899 0.5 1026243
13:00+2wsw468898 0.6 1026497
16:00+2wsw3698100 0.1 1024348
19:00+2ssw2499100 0.1 102483
22:00+1s3498100 0.1 102387
16 april, fri
fri1601:00+2ssw2595100 0.1 1021115
04:00+2ssw2594100 0.0 1019111
07:00+2ssw399489 0.0 1018249
10:00+4ssw51287100 0.0 1017347
13:00+6ssw510837 0.0 1015493
16:00+6ssw511856 0.0 1013452
19:00+6ssw5128196 0.0 1011289
22:00+5sw5137896 0.0 1011328
17 april, sat
sat1701:00+6sw6147577 0.0 1009352
04:00+1nnw5898100 0.4 1012350
07:00−1nnw2597100 2.1 1016378
10:00−1n3591100 0.9 1017546
13:00−1nne4595100 3.9 1009460
16:00−1ne5670100 0.3 1017942
19:00−3ne5974100 0.3 1017572
22:00−4ne4980100 0.0 1018508
18 april, sun
sun1801:00−5ene5108292 0.1 1017480
04:00−5e488394 0.0 1016389
07:00−4ese2383100 0.0 1014224
10:00−1ese2384100 0.1 1011436
13:00+1ne1196100 1.1 1008204
16:00+1nw11100100 1.7 1008108
19:00−2ne2393100 1.0 1018327
22:00−1ssw2497100 0.5 1012130